Вернуться в каталог

COSMOS 2251 DEB

АктивенLEO
NORAD 33791·DEBRIS·🇷🇺 Russia

Запущен Jun 16, 1993 с Plesetsk Cosmodrome

Loading…

Ближайшие Пролёты (ближайшие 24 часа)

TLE

СвежийSource: Space-Track

Эпоха: Sep 13, 2026, 23:00 UTC

1 33791U 93036AG  26256.95863350  .00001703  00000-0  50063-3 0  9992
2 33791  74.1709 250.2029 0028569 357.4117  24.3944 14.44250039920246

Отслеживайте COSMOS 2251 DEB в реальном времени с AllMySat

Download on the App Store